Time,TemperatureF,DewpointF,PressureIn,WindDirection,WindDirectionDegrees,WindSpeedMPH,WindSpeedGustMPH,Humidity,HourlyPrecipIn,Conditions,Clouds,dailyrainin,SoftwareType,DateUTC
2013-03-02 00:02:00,27.0,23.0,30.02,NNW,328,3.0,5.0,85,0.00,,,0.00,,2013-03-02 05:02:00,
2013-03-02 00:12:00,27.0,23.0,30.02,NNW,328,3.0,5.0,85,0.00,,,0.00,,2013-03-02 05:12:00,
2013-03-02 00:22:00,27.0,23.0,30.02,NW,314,3.0,6.0,85,0.00,,,0.00,,2013-03-02 05:22:00,
2013-03-02 00:32:00,27.0,23.0,30.02,WNW,297,2.0,3.0,86,0.00,,,0.00,,2013-03-02 05:32:00,
2013-03-02 00:42:00,27.0,23.0,30.02,WNW,297,2.0,3.0,86,0.00,,,0.00,,2013-03-02 05:42:00,
2013-03-02 00:52:00,27.0,23.0,30.02,North,5,3.0,6.0,83,0.00,,,0.00,,2013-03-02 05:52:00,
2013-03-02 01:01:00,27.0,22.0,30.02,NW,313,2.0,5.0,82,0.00,,,0.00,,2013-03-02 06:01:00,
2013-03-02 01:11:00,27.0,22.0,30.02,NW,313,2.0,5.0,82,0.00,,,0.00,,2013-03-02 06:11:00,
2013-03-02 01:21:00,27.0,23.0,30.02,North,349,3.0,6.0,83,0.00,,,0.00,,2013-03-02 06:21:00,
2013-03-02 01:32:00,27.0,23.0,30.02,NW,306,2.0,5.0,83,0.00,,,0.00,,2013-03-02 06:32:00,
2013-03-02 01:42:00,27.0,23.0,30.02,NW,306,2.0,5.0,83,0.00,,,0.00,,2013-03-02 06:42:00,
2013-03-02 01:52:00,27.0,23.0,30.03,NNW,327,3.0,6.0,83,0.00,,,0.00,,2013-03-02 06:52:00,
2013-03-02 02:01:00,27.0,22.0,30.03,NNW,332,3.0,6.0,82,0.00,,,0.00,,2013-03-02 07:01:00,
2013-03-02 02:11:00,27.0,22.0,30.03,NNW,344,5.0,6.0,82,0.00,,,0.00,,2013-03-02 07:11:00,
2013-03-02 02:21:00,27.0,22.0,30.03,NNW,344,5.0,6.0,82,0.00,,,0.00,,2013-03-02 07:21:00,
2013-03-02 02:32:00,27.0,22.0,30.03,NW,321,3.0,6.0,82,0.00,,,0.00,,2013-03-02 07:32:00,
2013-03-02 02:42:00,27.0,22.0,30.03,NW,321,3.0,6.0,82,0.00,,,0.00,,2013-03-02 07:42:00,
2013-03-02 02:52:00,26.0,22.0,30.03,NW,325,5.0,7.0,83,0.00,,,0.00,,2013-03-02 07:52:00,
2013-03-02 03:01:00,26.0,22.0,30.02,North,357,3.0,6.0,84,0.00,,,0.00,,2013-03-02 08:01:00,
2013-03-02 03:11:00,26.0,22.0,30.02,North,357,3.0,6.0,84,0.00,,,0.00,,2013-03-02 08:11:00,
2013-03-02 03:22:00,26.0,22.0,30.02,NW,317,2.0,3.0,84,0.00,,,0.00,,2013-03-02 08:22:00,
2013-03-02 03:32:00,26.0,22.0,30.01,WNW,292,2.0,2.0,86,0.00,,,0.00,,2013-03-02 08:32:00,
2013-03-02 03:42:00,26.0,22.0,30.01,WNW,292,2.0,2.0,86,0.00,,,0.00,,2013-03-02 08:42:00,
2013-03-02 03:52:00,26.0,22.0,30.01,WNW,301,2.0,5.0,85,0.00,,,0.00,,2013-03-02 08:52:00,
2013-03-02 04:02:00,26.0,23.0,30.01,NW,308,1.0,2.0,87,0.00,,,0.00,,2013-03-02 09:02:00,
2013-03-02 04:11:00,26.0,22.0,30.01,WNW,303,2.0,5.0,86,0.00,,,0.00,,2013-03-02 09:11:00,
2013-03-02 04:21:00,26.0,22.0,30.01,WNW,303,2.0,5.0,86,0.00,,,0.00,,2013-03-02 09:21:00,
2013-03-02 04:32:00,26.0,22.0,30.01,NW,304,3.0,5.0,83,0.00,,,0.00,,2013-03-02 09:32:00,
2013-03-02 04:42:00,26.0,22.0,30.01,NW,304,3.0,5.0,83,0.00,,,0.00,,2013-03-02 09:42:00,
2013-03-02 04:52:00,26.0,21.0,30.01,WNW,301,1.0,6.0,82,0.00,,,0.00,,2013-03-02 09:52:00,
2013-03-02 05:01:00,26.0,22.0,30.01,WNW,294,3.0,3.0,83,0.00,,,0.00,,2013-03-02 10:01:00,
2013-03-02 05:16:00,26.0,21.0,30.01,WNW,299,3.0,5.0,82,0.00,,,0.00,,2013-03-02 10:16:00,
2013-03-02 05:22:00,26.0,21.0,30.01,WNW,299,3.0,5.0,82,0.00,,,0.00,,2013-03-02 10:22:00,
2013-03-02 05:32:00,26.0,21.0,30.01,NW,321,2.0,3.0,82,0.00,,,0.00,,2013-03-02 10:32:00,
2013-03-02 05:43:00,26.0,21.0,30.01,NW,321,2.0,3.0,82,0.00,,,0.00,,2013-03-02 10:43:00,
2013-03-02 05:52:00,26.0,21.0,30.01,NW,306,2.0,2.0,81,0.00,,,0.00,,2013-03-02 10:52:00,
2013-03-02 06:01:00,26.0,22.0,30.01,WNW,297,3.0,6.0,83,0.00,,,0.00,,2013-03-02 11:01:00,
2013-03-02 06:11:00,26.0,22.0,30.01,WNW,297,3.0,6.0,83,0.00,,,0.00,,2013-03-02 11:11:00,
2013-03-02 06:21:00,26.0,22.0,30.01,WNW,299,2.0,2.0,84,0.00,,,0.00,,2013-03-02 11:21:00,
2013-03-02 06:32:00,26.0,22.0,30.01,NW,317,3.0,7.0,85,0.00,,,0.00,,2013-03-02 11:32:00,
2013-03-02 06:42:00,26.0,22.0,30.01,NW,317,3.0,7.0,85,0.00,,,0.00,,2013-03-02 11:42:00,
2013-03-02 06:52:00,26.0,22.0,30.01,NW,310,3.0,5.0,85,0.00,,,0.00,,2013-03-02 11:52:00,
2013-03-02 07:02:00,26.0,22.0,30.02,NW,325,2.0,7.0,84,0.00,,,0.00,,2013-03-02 12:02:00,
2013-03-02 07:11:00,26.0,22.0,30.02,NW,325,2.0,7.0,84,0.00,,,0.00,,2013-03-02 12:11:00,
2013-03-02 07:22:00,26.0,22.0,30.02,NW,317,2.0,5.0,85,0.00,,,0.00,,2013-03-02 12:22:00,
2013-03-02 07:33:00,26.0,22.0,30.02,NW,317,2.0,3.0,84,0.00,,,0.00,,2013-03-02 12:33:00,
2013-03-02 07:43:00,26.0,22.0,30.02,NW,317,2.0,3.0,84,0.00,,,0.00,,2013-03-02 12:43:00,
2013-03-02 07:53:00,26.0,21.0,30.02,NNW,332,2.0,5.0,82,0.00,,,0.00,,2013-03-02 12:53:00,
2013-03-02 08:01:00,26.0,22.0,30.03,NW,306,2.0,3.0,83,0.00,,,0.00,,2013-03-02 13:01:00,
2013-03-02 08:11:00,26.0,22.0,30.03,NW,306,2.0,3.0,83,0.00,,,0.00,,2013-03-02 13:11:00,
2013-03-02 08:22:00,26.0,23.0,30.03,NW,305,3.0,5.0,87,0.00,,,0.00,,2013-03-02 13:22:00,
2013-03-02 08:32:00,25.0,21.0,30.03,NW,308,1.0,1.0,86,0.00,,,0.00,,2013-03-02 13:32:00,
2013-03-02 08:42:00,25.0,21.0,30.03,NW,308,1.0,1.0,86,0.00,,,0.00,,2013-03-02 13:42:00,
2013-03-02 08:52:00,25.0,22.0,30.03,NW,313,3.0,7.0,87,0.00,,,0.00,,2013-03-02 13:52:00,
2013-03-02 09:01:00,25.0,21.0,30.03,NNW,327,5.0,6.0,86,0.00,,,0.00,,2013-03-02 14:01:00,
2013-03-02 09:11:00,25.0,21.0,30.03,NNW,327,5.0,6.0,86,0.00,,,0.00,,2013-03-02 14:11:00,
2013-03-02 09:22:00,25.0,22.0,30.04,NNW,331,2.0,3.0,87,0.00,,,0.00,,2013-03-02 14:22:00,
2013-03-02 09:32:00,25.0,22.0,30.04,NW,307,3.0,3.0,90,0.00,,,0.00,,2013-03-02 14:32:00,
2013-03-02 09:42:00,25.0,22.0,30.04,NW,307,3.0,3.0,90,0.00,,,0.00,,2013-03-02 14:42:00,
2013-03-02 09:52:00,25.0,23.0,30.04,NW,315,1.0,5.0,92,0.00,,,0.00,,2013-03-02 14:52:00,
2013-03-02 10:02:00,25.0,23.0,30.04,NNW,346,0.0,1.0,92,0.00,,,0.00,,2013-03-02 15:02:00,
2013-03-02 10:11:00,25.0,23.0,30.04,NNW,346,0.0,1.0,92,0.00,,,0.00,,2013-03-02 15:11:00,
2013-03-02 10:21:00,25.0,22.0,30.04,NW,316,2.0,3.0,90,0.00,,,0.00,,2013-03-02 15:21:00,
2013-03-02 10:32:00,25.0,23.0,30.04,NW,314,1.0,2.0,92,0.00,,,0.00,,2013-03-02 15:32:00,
2013-03-02 10:42:00,25.0,23.0,30.04,NW,314,1.0,2.0,92,0.00,,,0.00,,2013-03-02 15:42:00,
2013-03-02 10:52:00,25.0,22.0,30.04,NW,306,0.0,1.0,90,0.00,,,0.00,,2013-03-02 15:52:00,
2013-03-02 11:02:00,25.0,22.0,30.04,WNW,302,2.0,3.0,87,0.00,,,0.00,,2013-03-02 16:02:00,
2013-03-02 11:11:00,25.0,22.0,30.04,WNW,302,2.0,3.0,87,0.00,,,0.00,,2013-03-02 16:11:00,
2013-03-02 11:21:00,26.0,23.0,30.04,WNW,293,1.0,2.0,88,0.00,,,0.00,,2013-03-02 16:21:00,
2013-03-02 11:32:00,26.0,23.0,30.04,West,271,2.0,2.0,89,0.00,,,0.00,,2013-03-02 16:32:00,
2013-03-02 11:42:00,26.0,23.0,30.04,West,271,2.0,2.0,89,0.00,,,0.00,,2013-03-02 16:42:00,
2013-03-02 11:52:00,25.0,23.0,30.04,WNW,289,3.0,5.0,92,0.00,,,0.00,,2013-03-02 16:52:00,
2013-03-02 12:01:00,26.0,23.0,30.04,WNW,285,3.0,7.0,90,0.00,,,0.00,,2013-03-02 17:01:00,
2013-03-02 12:11:00,26.0,23.0,30.04,West,277,3.0,7.0,89,0.00,,,0.00,,2013-03-02 17:11:00,
2013-03-02 12:21:00,26.0,23.0,30.04,West,277,3.0,7.0,89,0.00,,,0.00,,2013-03-02 17:21:00,
2013-03-02 12:32:00,26.0,22.0,30.04,WNW,299,5.0,6.0,85,0.00,,,0.00,,2013-03-02 17:32:00,
2013-03-02 12:42:00,26.0,22.0,30.04,WNW,299,5.0,6.0,85,0.00,,,0.00,,2013-03-02 17:42:00,
2013-03-02 12:52:00,26.0,22.0,30.04,WNW,283,5.0,6.0,86,0.00,,,0.00,,2013-03-02 17:52:00,
2013-03-02 13:02:00,26.0,23.0,30.03,West,265,3.0,5.0,87,0.00,,,0.00,,2013-03-02 18:02:00,
2013-03-02 13:11:00,26.0,23.0,30.03,West,265,3.0,5.0,87,0.00,,,0.00,,2013-03-02 18:11:00,
2013-03-02 13:22:00,26.0,23.0,30.03,West,278,6.0,7.0,87,0.00,,,0.00,,2013-03-02 18:22:00,
2013-03-02 13:32:00,26.0,22.0,30.03,WNW,284,6.0,6.0,86,0.00,,,0.00,,2013-03-02 18:32:00,
2013-03-02 13:42:00,26.0,22.0,30.03,WNW,284,6.0,6.0,86,0.00,,,0.00,,2013-03-02 18:42:00,
2013-03-02 13:52:00,26.0,22.0,30.03,WNW,287,5.0,5.0,85,0.00,,,0.00,,2013-03-02 18:52:00,
2013-03-02 14:01:00,26.0,21.0,30.02,WNW,287,3.0,7.0,82,0.00,,,0.00,,2013-03-02 19:01:00,
2013-03-02 14:11:00,26.0,21.0,30.02,WNW,287,3.0,7.0,82,0.00,,,0.00,,2013-03-02 19:11:00,
2013-03-02 14:22:00,27.0,22.0,30.02,West,277,2.0,6.0,80,0.00,,,0.00,,2013-03-02 19:22:00,
2013-03-02 14:32:00,27.0,21.0,30.02,NW,304,3.0,5.0,78,0.00,,,0.00,,2013-03-02 19:32:00,
2013-03-02 14:42:00,27.0,21.0,30.02,NW,304,3.0,5.0,78,0.00,,,0.00,,2013-03-02 19:42:00,
2013-03-02 14:52:00,27.0,21.0,30.02,West,268,2.0,5.0,79,0.00,,,0.00,,2013-03-02 19:52:00,
2013-03-02 15:01:00,27.0,22.0,30.01,WNW,291,1.0,2.0,81,0.00,,,0.00,,2013-03-02 20:01:00,
2013-03-02 15:11:00,27.0,22.0,30.01,WNW,291,1.0,2.0,81,0.00,,,0.00,,2013-03-02 20:11:00,
2013-03-02 15:22:00,27.0,22.0,30.02,West,279,3.0,5.0,82,0.00,,,0.00,,2013-03-02 20:22:00,
2013-03-02 15:32:00,27.0,22.0,30.02,WNW,283,5.0,8.0,82,0.00,,,0.00,,2013-03-02 20:32:00,
2013-03-02 15:42:00,27.0,22.0,30.02,WNW,283,5.0,8.0,82,0.00,,,0.00,,2013-03-02 20:42:00,
2013-03-02 15:53:00,27.0,22.0,30.02,West,274,6.0,8.0,80,0.00,,,0.00,,2013-03-02 20:53:00,
2013-03-02 16:02:00,27.0,21.0,30.02,WNW,287,3.0,6.0,79,0.00,,,0.00,,2013-03-02 21:02:00,
2013-03-02 16:11:00,27.0,21.0,30.02,WNW,287,3.0,6.0,79,0.00,,,0.00,,2013-03-02 21:11:00,
2013-03-02 16:22:00,27.0,22.0,30.02,WNW,303,3.0,6.0,81,0.00,,,0.00,,2013-03-02 21:22:00,
2013-03-02 16:32:00,27.0,21.0,30.02,WNW,290,3.0,7.0,78,0.00,,,0.00,,2013-03-02 21:32:00,
2013-03-02 16:42:00,27.0,21.0,30.02,WNW,290,3.0,7.0,78,0.00,,,0.00,,2013-03-02 21:42:00,
2013-03-02 16:52:00,27.0,22.0,30.02,WNW,292,5.0,7.0,81,0.00,,,0.00,,2013-03-02 21:52:00,
2013-03-02 17:02:00,27.0,21.0,30.03,WNW,294,3.0,5.0,78,0.00,,,0.00,,2013-03-02 22:02:00,
2013-03-02 17:11:00,27.0,21.0,30.03,WNW,294,3.0,5.0,78,0.00,,,0.00,,2013-03-02 22:11:00,
2013-03-02 17:22:00,27.0,22.0,30.03,WNW,291,3.0,6.0,80,0.00,,,0.00,,2013-03-02 22:22:00,
2013-03-02 17:32:00,27.0,22.0,30.03,WNW,282,3.0,7.0,80,0.00,,,0.00,,2013-03-02 22:32:00,
2013-03-02 17:42:00,27.0,22.0,30.03,WNW,282,3.0,7.0,80,0.00,,,0.00,,2013-03-02 22:42:00,
2013-03-02 17:52:00,27.0,22.0,30.03,NW,307,2.0,6.0,80,0.00,,,0.00,,2013-03-02 22:52:00,
2013-03-02 18:01:00,27.0,22.0,30.04,NW,304,3.0,3.0,80,0.00,,,0.00,,2013-03-02 23:01:00,
2013-03-02 18:11:00,26.0,21.0,30.04,WNW,295,5.0,7.0,81,0.00,,,0.00,,2013-03-02 23:11:00,
2013-03-02 18:21:00,26.0,21.0,30.04,WNW,295,5.0,7.0,81,0.00,,,0.00,,2013-03-02 23:21:00,
2013-03-02 18:32:00,27.0,21.0,30.04,WNW,299,2.0,6.0,77,0.00,,,0.00,,2013-03-02 23:32:00,
2013-03-02 18:42:00,27.0,21.0,30.04,WNW,299,2.0,6.0,77,0.00,,,0.00,,2013-03-02 23:42:00,
2013-03-02 18:52:00,27.0,21.0,30.04,West,278,1.0,3.0,78,0.00,,,0.00,,2013-03-02 23:52:00,
2013-03-02 19:02:00,26.0,20.0,30.04,WNW,288,2.0,5.0,79,0.00,,,0.00,,2013-03-03 00:02:00,
2013-03-02 19:11:00,26.0,20.0,30.04,WNW,288,2.0,5.0,79,0.00,,,0.00,,2013-03-03 00:11:00,
2013-03-02 19:22:00,27.0,21.0,30.04,NW,313,1.0,2.0,79,0.00,,,0.00,,2013-03-03 00:22:00,
2013-03-02 19:32:00,27.0,21.0,30.05,WNW,299,2.0,3.0,77,0.00,,,0.00,,2013-03-03 00:32:00,
2013-03-02 19:42:00,27.0,21.0,30.05,WNW,299,2.0,3.0,77,0.00,,,0.00,,2013-03-03 00:42:00,
2013-03-02 19:52:00,27.0,21.0,30.05,WNW,285,2.0,5.0,78,0.00,,,0.00,,2013-03-03 00:52:00,
2013-03-02 20:01:00,27.0,21.0,30.05,West,278,2.0,2.0,79,0.00,,,0.00,,2013-03-03 01:01:00,
2013-03-02 20:11:00,27.0,21.0,30.05,West,278,2.0,2.0,79,0.00,,,0.00,,2013-03-03 01:11:00,
2013-03-02 20:21:00,27.0,22.0,30.05,NW,317,2.0,3.0,80,0.00,,,0.00,,2013-03-03 01:21:00,
2013-03-02 20:32:00,27.0,21.0,30.04,NW,318,2.0,2.0,79,0.00,,,0.00,,2013-03-03 01:32:00,
2013-03-02 20:42:00,27.0,21.0,30.04,NW,318,2.0,2.0,79,0.00,,,0.00,,2013-03-03 01:42:00,
2013-03-02 20:52:00,27.0,22.0,30.05,NW,313,0.0,1.0,80,0.00,,,0.00,,2013-03-03 01:52:00,
2013-03-02 21:01:00,27.0,21.0,30.05,WNW,297,2.0,3.0,79,0.00,,,0.00,,2013-03-03 02:01:00,
2013-03-02 21:11:00,27.0,22.0,30.05,WNW,294,1.0,2.0,80,0.00,,,0.00,,2013-03-03 02:11:00,
2013-03-02 21:21:00,27.0,22.0,30.05,WNW,294,1.0,2.0,80,0.00,,,0.00,,2013-03-03 02:21:00,
2013-03-02 21:32:00,27.0,22.0,30.05,NW,305,0.0,0.0,80,0.00,,,0.00,,2013-03-03 02:32:00,
2013-03-02 21:42:00,27.0,22.0,30.05,NW,305,0.0,0.0,80,0.00,,,0.00,,2013-03-03 02:42:00,
2013-03-02 21:52:00,27.0,22.0,30.05,WNW,299,1.0,2.0,80,0.00,,,0.00,,2013-03-03 02:52:00,
2013-03-02 22:01:00,27.0,22.0,30.05,West,260,0.0,2.0,80,0.00,,,0.00,,2013-03-03 03:01:00,
2013-03-02 22:11:00,27.0,22.0,30.05,West,260,0.0,2.0,80,0.00,,,0.00,,2013-03-03 03:11:00,
2013-03-02 22:21:00,27.0,22.0,30.05,SW,236,0.0,0.0,81,0.00,,,0.00,,2013-03-03 03:21:00,
2013-03-02 22:32:00,26.0,21.0,30.05,West,266,2.0,3.0,80,0.00,,,0.00,,2013-03-03 03:32:00,
2013-03-02 22:42:00,26.0,21.0,30.05,West,266,2.0,3.0,80,0.00,,,0.00,,2013-03-03 03:42:00,
2013-03-02 22:52:00,27.0,22.0,30.05,WNW,284,0.0,0.0,80,0.00,,,0.00,,2013-03-03 03:52:00,
2013-03-02 23:01:00,26.0,21.0,30.05,West,266,1.0,2.0,81,0.00,,,0.00,,2013-03-03 04:01:00,
2013-03-02 23:11:00,26.0,21.0,30.05,West,266,1.0,2.0,81,0.00,,,0.00,,2013-03-03 04:11:00,
2013-03-02 23:21:00,26.0,21.0,30.04,West,278,3.0,5.0,80,0.00,,,0.00,,2013-03-03 04:21:00,
2013-03-02 23:32:00,26.0,21.0,30.04,West,271,2.0,5.0,81,0.00,,,0.00,,2013-03-03 04:32:00,
2013-03-02 23:42:00,26.0,21.0,30.04,West,271,2.0,5.0,81,0.00,,,0.00,,2013-03-03 04:42:00,
2013-03-02 23:52:00,26.0,21.0,30.04,WSW,257,0.0,0.0,82,0.00,,,0.00,,2013-03-03 04:52:00,